Voltar ao catálogo

CZ-6A DEB

AtivoPO
NORAD 61352·DEBRIS·🇨🇳 China

Lançado Aug 6, 2024 de Taiyuan Satellite Launch Center

Loading…

Próximas Passagens (próximas 24 horas)

TLE

AtualizadoSource: Space-Track

Época: Sep 14, 2026, 10:39 UTC

1 61352U 24140VR  26257.44421084  .00001622  00000-0  63601-3 0  9997
2 61352  88.9922 263.2981 0024879 202.4041 157.6070 14.28840255105743

Acompanhe CZ-6A DEB em tempo real com AllMySat

Download on the App Store